Regional Weather Roundup
Issued by NWS

Home | Current Version | Previous Version | Graphics & Text | Print | Product List | Glossary Off
Versions: 1 2 3 4 5 6 7 8 9 10 11 12 13 14 15 16 17 18 19 20 21 22 23 24 25 26 27 28 29 30 31 32 33 34 35 36 37 38 39 40 41 42 43 44 45 46 47 48 49 50

000
ASUS43 KLSX 242207
RWRMO

WEATHER SUMMARY FOR MISSOURI
NATIONAL WEATHER SERVICE SPRINGFIELD MO
500 PM CDT TUE MAY 24 2016

NOTE: "FAIR" INDICATES FEW OR NO CLOUDS BELOW 12,000 FEET WITH NO
       SIGNIFICANT WEATHER AND/OR OBSTRUCTIONS TO VISIBILITY.
       CURRENT SKY AND/OR WEATHER CONDITIONS ARE NOT AVAILABLE FOR
       CHILLICOTHE AND FARMINGTON.

MOZ001>031-035>038-043-044-053-054-242300-
...NORTHERN AND WESTERN MISSOURI...

CITY           SKY/WX    TMP DP  RH WIND       PRES   REMARKS
KANSAS CTY INT MOSUNNY   79  67  66 SW8       29.89R
KANSAS C DTWN  SUNNY     80  66  62 S8        29.88R
LEE`S SUMMIT   MOSUNNY   77  65  66 S12       29.90R
ST JOSEPH      SUNNY     80  62  54 CALM      29.88F
CHILLICOTHE      N/A     76  67  73 S3        29.91S
KIRKSVILLE     CLOUDY    75  64  68 S7        29.93F

$$
MOZ066>068-077>081-088>096-101>105-242300-
...SOUTHWEST MISSOURI...

CITY           SKY/WX    TMP DP  RH WIND       PRES   REMARKS
SPRINGFIELD    CLOUDY    69  61  75 SE18      29.97R
JOPLIN         CLOUDY    80  71  74 S16       29.92F
BRANSON        CLOUDY    63  63 100 SE12G17   30.03

$$
MOZ032>034-039>042-045>050-055>058-069>072-242300-
...CENTRAL MISSOURI...

CITY           SKY/WX    TMP DP  RH WIND       PRES   REMARKS
COLUMBIA       CLOUDY    69  65  86 N5        29.92R
JEFFERSON CITY CLOUDY    71  62  73 W7        29.89R
ROLLA          LGT RAIN  65  62  90 SE22      29.89F
SEDALIA        CLOUDY    76  63  64 SW5       29.91R
WHITEMAN AFB   PTSUNNY   75  64  68 SW7       29.89R
WARRENSBURG    MOSUNNY   77  63  61 SE6       29.90R

$$
MOZ051-052-059>065-242300-
...EAST CENTRAL MISSOURI...

CITY           SKY/WX    TMP DP  RH WIND       PRES   REMARKS
ST LOUIS INTL  CLOUDY    78  64  61 S15G24    29.98F
SPIRIT OF STL  CLOUDY    73  64  73 S6        29.96F
ST CHARLES     CLOUDY    78  66  66 S16       29.95F

$$
MOZ072>076-082>087-097>100-106>115-242300-
...SOUTH CENTRAL AND SOUTHEAST MISSOURI...

CITY           SKY/WX    TMP DP  RH WIND       PRES   REMARKS
CAPE GIRARDEAU CLOUDY    75  64  68 SW9       30.03F
FARMINGTON     TSTM      65  63  93 SW5       30.08F FOG
POPLAR BLUFF   LGT RAIN  68  66  93 NW16G25   30.11R
WEST PLAINS    TSTM      64  61  90 E13       30.04F

$$



USA.gov is the U.S. government's official web portal to all federal, state and local government web resources and services.